Location: Allos
(44.2333°N, 6.6333°E)
Time: 18:11:12
(UTC+00:00)

Meteor 1-11 Rocket - Pass Details

Date: 01 December 2020
Orbit: 832 x 915 km, 81.2° (Epoch: 23 January)

Event Time Altitude Azimuth Distance (km) Brightness Sun altitude
Rises 17:33:41 0° 356° (N) 3,475 6.8 -17.0°
Reaches altitude 10° 17:36:17 10° 4° (N) 2,546 6.0 -17.5°
Maximum altitude 17:41:42 39° 72° (ENE) 1,322 4.2 -18.4°
Drops below altitude 10° 17:47:09 10° 140° (SE) 2,578 6.0 -19.3°
Sets 17:49:47 0° 148° (SSE) 3,523 6.7 -19.8°
